Weather History for St. James, MN

Change the Weather History Date:

Thursday, November 14, 2013

  Actual Average Record
Temperature  
Mean Temperature 46 °F -  
Max Temperature 59 °F 40 °F 66 °F (2001)
Min Temperature 32 °F 24 °F -8 °F (1959)
Degree Days  
Heating Degree Days 20    
Moisture  
Dew Point 34 °F    
Average Humidity 77    
Maximum Humidity 93    
Minimum Humidity 48    
Precipitation  
Precipitation 0.00 in - - ()
Sea Level Pressure  
Sea Level Pressure 29.85 in    
Wind  
Wind Speed 6 mph (SW)    
Max Wind Speed 14 mph    
Max Gust Speed 18 mph    
Visibility 10 miles    
Events Rain    
Averages and records for this station are not official NWS values.
T = Trace of Precipitation, MM = Missing Value Source: NWS Daily Summary

Daily Weather History Graph

Daily Weather History Graph

Search for Another Location

Airport:

Trip Planner

Search our weather history database for the weather conditions in past years. The results will help you decide how hot, cold, wet, or windy it might be!

Date:

Astronomy

Nov. 14, 2013 Rise Set
Actual Time 7:12 AM CST 4:52 PM CST
Civil Twilight 6:41 AM CST 5:23 PM CST
Nautical Twilight 6:06 AM CST 5:58 PM CST
Astronomical Twilight 5:32 AM CST 6:32 PM CST
Moon 3:19 PM CST 4:02 AM CST
Length of Visible Light 10h 42m
Length of Day
9h 40m
Waxing Gibbous, 92% of the Moon is Illuminated
Nov 14
Waxing Gibbous
Nov 17
Full
Nov 25
Last Quarter
Dec 2
New
Dec 9
First Quarter

Hourly Weather History & Observations

Time (CST) Temp. Windchill Dew Point Humidity Pressure Visibility Wind Dir Wind Speed Gust Speed Precip Events Conditions
12:15 AM 37.4 °F 33.8 °F 30.2 °F 75% 29.89 in 10.0 mi South 4.6 mph - N/A   Clear
12:35 AM 37.4 °F 33.8 °F 30.2 °F 75% 29.89 in 10.0 mi South 4.6 mph - N/A   Clear
12:55 AM 35.6 °F 30.7 °F 30.2 °F 81% 29.88 in 10.0 mi South 5.8 mph - N/A   Clear
1:15 AM 35.6 °F 31.7 °F 30.2 °F 81% 29.88 in 10.0 mi SSW 4.6 mph - N/A   Clear
1:35 AM 35.6 °F 31.7 °F 30.2 °F 81% 29.87 in 10.0 mi SSW 4.6 mph - N/A   Clear
1:55 AM 37.4 °F 34.9 °F 30.2 °F 75% 29.88 in 10.0 mi SSW 3.5 mph - N/A   Clear
2:15 AM 37.4 °F 33.8 °F 30.2 °F 75% 29.87 in 10.0 mi SSW 4.6 mph - N/A   Clear
2:35 AM 35.6 °F 30.7 °F 30.2 °F 81% 29.88 in 10.0 mi SW 5.8 mph - N/A   Clear
2:55 AM 35.6 °F 29.9 °F 30.2 °F 81% 29.87 in 10.0 mi SW 6.9 mph - N/A   Clear
3:15 AM 35.6 °F 29.2 °F 30.2 °F 81% 29.87 in 10.0 mi SW 8.1 mph - N/A   Clear
3:35 AM 35.6 °F 30.7 °F 30.2 °F 81% 29.87 in 10.0 mi SW 5.8 mph - N/A   Clear
3:55 AM 35.6 °F 32.8 °F 30.2 °F 81% 29.86 in 10.0 mi SSW 3.5 mph - N/A   Clear
4:15 AM 35.6 °F 30.7 °F 30.2 °F 81% 29.86 in 10.0 mi SSW 5.8 mph - N/A   Clear
4:35 AM 35.6 °F 31.7 °F 30.2 °F 81% 29.86 in 10.0 mi SSW 4.6 mph - N/A   Clear
4:55 AM 37.4 °F 32.8 °F 30.2 °F 75% 29.86 in 10.0 mi SSW 5.8 mph - N/A   Clear
5:15 AM 37.4 °F 32.1 °F 32.0 °F 81% 29.87 in 10.0 mi SSW 6.9 mph - N/A   Scattered Clouds
5:35 AM 37.4 °F 32.8 °F 32.0 °F 81% 29.86 in 10.0 mi SSW 5.8 mph - N/A   Drizzle
5:55 AM 37.4 °F 32.8 °F 32.0 °F 81% 29.86 in 10.0 mi SW 5.8 mph - N/A   Scattered Clouds
6:15 AM 37.4 °F 31.4 °F 32.0 °F 81% 29.86 in 10.0 mi SSW 8.1 mph - N/A   Scattered Clouds
6:35 AM 37.4 °F 30.8 °F 32.0 °F 81% 29.85 in 10.0 mi SSW 9.2 mph - N/A   Scattered Clouds
6:55 AM 37.4 °F 31.4 °F 33.8 °F 87% 29.86 in 10.0 mi WSW 8.1 mph - N/A   Mostly Cloudy
7:15 AM 37.4 °F 31.4 °F 33.8 °F 87% 29.86 in 10.0 mi SW 8.1 mph - N/A   Light Drizzle
7:35 AM 37.4 °F 30.8 °F 33.8 °F 87% 29.86 in 10.0 mi SSW 9.2 mph - N/A Rain Light Rain
7:55 AM 37.4 °F 31.4 °F 33.8 °F 87% 29.85 in 10.0 mi South 8.1 mph - N/A Rain Light Rain
8:14 AM 37.4 °F 30.3 °F 35.6 °F 93% 29.88 in 10.0 mi WNW 10.4 mph - N/A   Mostly Cloudy
8:35 AM 39.2 °F 34.2 °F 35.6 °F 87% 29.87 in 10.0 mi SW 6.9 mph - N/A   Scattered Clouds
8:55 AM 39.2 °F 34.2 °F 35.6 °F 87% 29.86 in 10.0 mi SSW 6.9 mph - N/A   Mostly Cloudy
9:14 AM 39.2 °F 34.2 °F 35.6 °F 87% 29.87 in 10.0 mi SSW 6.9 mph - N/A   Mostly Cloudy
9:35 AM 39.2 °F 34.2 °F 35.6 °F 87% 29.87 in 10.0 mi South 6.9 mph - N/A   Scattered Clouds
9:55 AM 41.0 °F 36.4 °F 35.6 °F 81% 29.88 in 10.0 mi West 6.9 mph 10.4 mph N/A   Scattered Clouds
10:14 AM 42.8 °F 38.0 °F 35.6 °F 76% 29.89 in 10.0 mi WSW 8.1 mph - N/A   Clear
10:35 AM 42.8 °F 38.0 °F 35.6 °F 76% 29.88 in 10.0 mi SSW 8.1 mph - N/A   Clear
10:55 AM 44.6 °F 40.7 °F 37.4 °F 76% 29.86 in 10.0 mi South 6.9 mph - N/A   Clear
11:14 AM 44.6 °F 40.7 °F 37.4 °F 76% 29.86 in 10.0 mi SW 6.9 mph - N/A   Scattered Clouds
11:35 AM 46.4 °F 43.5 °F 37.4 °F 71% 29.85 in 10.0 mi SW 5.8 mph - N/A   Scattered Clouds
11:55 AM 46.4 °F 42.9 °F 37.4 °F 71% 29.84 in 10.0 mi SW 6.9 mph - N/A   Clear
12:14 PM 48.2 °F - 39.2 °F 71% 29.83 in 10.0 mi SW 8.1 mph - N/A   Scattered Clouds
12:35 PM 48.2 °F - 39.2 °F 71% 29.83 in 10.0 mi WSW 5.8 mph - N/A   Clear
12:55 PM 50.0 °F - 39.2 °F 66% 29.81 in 10.0 mi SW 8.1 mph - N/A   Clear
1:15 PM 51.8 °F - 39.2 °F 62% 29.80 in 10.0 mi SW 9.2 mph - N/A   Clear
1:35 PM 53.6 °F - 41.0 °F 62% 29.80 in 10.0 mi SW 9.2 mph - N/A   Clear
1:55 PM 55.4 °F - 41.0 °F 58% 29.79 in 10.0 mi WSW 10.4 mph - N/A   Clear
2:15 PM 57.2 °F - 42.8 °F 59% 29.79 in 10.0 mi WSW 11.5 mph - N/A   Clear
2:35 PM 57.2 °F - 39.2 °F 51% 29.79 in 10.0 mi West 12.7 mph 18.4 mph N/A   Clear
2:55 PM 59.0 °F - 39.2 °F 48% 29.79 in 10.0 mi West 13.8 mph - N/A   Clear
3:15 PM 57.2 °F - 39.2 °F 51% 29.79 in 10.0 mi West 13.8 mph - N/A   Clear
3:35 PM 57.2 °F - 39.2 °F 51% 29.79 in 10.0 mi West 9.2 mph - N/A   Clear
3:55 PM 57.2 °F - 39.2 °F 51% 29.79 in 10.0 mi West 13.8 mph - N/A   Clear
4:14 PM 55.4 °F - 39.2 °F 54% 29.80 in 10.0 mi West 9.2 mph 12.7 mph N/A   Clear
4:35 PM 51.8 °F - 37.4 °F 58% 29.80 in 10.0 mi West 9.2 mph - N/A   Clear
4:55 PM 48.2 °F - 37.4 °F 66% 29.81 in 10.0 mi West 9.2 mph - N/A   Clear
5:15 PM 46.4 °F 41.9 °F 37.4 °F 71% 29.81 in 10.0 mi West 9.2 mph - N/A   Clear
5:34 PM 46.4 °F 41.5 °F 37.4 °F 71% 29.82 in 10.0 mi West 10.4 mph - N/A   Clear
5:55 PM 44.6 °F 39.7 °F 35.6 °F 71% 29.83 in 10.0 mi WNW 9.2 mph - N/A   Clear
6:15 PM 42.8 °F 38.0 °F 35.6 °F 76% 29.84 in 10.0 mi WNW 8.1 mph - N/A   Clear
6:35 PM 42.8 °F 38.6 °F 35.6 °F 76% 29.84 in 10.0 mi West 6.9 mph - N/A   Clear
6:54 PM 42.8 °F 38.6 °F 35.6 °F 76% 29.84 in 10.0 mi West 6.9 mph - N/A   Clear
7:15 PM 41.0 °F 37.1 °F 35.6 °F 81% 29.85 in 10.0 mi West 5.8 mph - N/A   Clear
7:35 PM 39.2 °F 35.9 °F 33.8 °F 81% 29.85 in 10.0 mi WSW 4.6 mph - N/A   Clear
7:55 PM 39.2 °F 35.0 °F 33.8 °F 81% 29.85 in 10.0 mi WSW 5.8 mph - N/A   Clear
8:15 PM 37.4 °F 32.8 °F 33.8 °F 87% 29.85 in 10.0 mi WSW 5.8 mph - N/A   Clear
8:35 PM 35.6 °F 30.7 °F 32.0 °F 87% 29.85 in 10.0 mi WSW 5.8 mph - N/A   Clear
8:55 PM 35.6 °F 29.9 °F 32.0 °F 87% 29.86 in 10.0 mi WSW 6.9 mph - N/A   Clear
9:15 PM 37.4 °F 32.8 °F 33.8 °F 87% 29.87 in 10.0 mi WSW 5.8 mph - N/A   Clear
9:34 PM 35.6 °F 31.7 °F 30.2 °F 81% 29.87 in 10.0 mi SW 4.6 mph - N/A   Clear
9:55 PM 35.6 °F 32.8 °F 32.0 °F 87% 29.87 in 10.0 mi SW 3.5 mph - N/A   Clear
10:15 PM 35.6 °F 31.7 °F 30.2 °F 81% 29.87 in 10.0 mi SW 4.6 mph - N/A   Clear
10:35 PM 33.8 °F 30.8 °F 30.2 °F 87% 29.86 in 10.0 mi South 3.5 mph - N/A   Clear
10:55 PM 33.8 °F 30.8 °F 30.2 °F 87% 29.85 in 10.0 mi SSW 3.5 mph - N/A   Clear
11:15 PM 33.8 °F 30.8 °F 30.2 °F 87% 29.85 in 10.0 mi SSW 3.5 mph - N/A   Clear
11:35 PM 32.0 °F - 30.2 °F 93% 29.85 in 10.0 mi Calm Calm - N/A   Clear
11:55 PM 32.0 °F 27.5 °F 30.2 °F 93% 29.85 in 10.0 mi SSW 4.6 mph - N/A   Clear